Bishop, CA

7:14 PM PST on February 12, 2016 (GMT -0800)
Bishop

Weather History for KBIH - March, 2014

Change the Weather History Date:

Monday, March 10, 2014

  Actual Average Record
Temperature  
Mean Temperature 52 °F 47 °F  
Max Temperature 75 °F 64 °F 79 °F (1972)
Min Temperature 29 °F 31 °F 14 °F (2009)
Degree Days  
Heating Degree Days 13 18  
Month to date heating degree days 148 187  
Since 1 July heating degree days 3098 3394  
Cooling Degree Days 0 0  
Month to date cooling degree days 0 0  
Year to date cooling degree days 0 0  
Growing Degree Days 2 (Base 50)    
Moisture  
Dew Point 17 °F    
Average Humidity 37    
Maximum Humidity 69    
Minimum Humidity 5    
Precipitation  
Precipitation 0.00 in 0.02 in 1.53 in (1995)
Month to date precipitation T 0.22  
Year to date precipitation 1.91 2.12  
Snow  
Snow 0.00 in 0.00 in 1.70 in (1969)
Month to date snowfall 0.0 0.3  
Since 1 July snowfall 0.5 6.2  
Snow Depth 0.00 in    
Sea Level Pressure  
Sea Level Pressure 30.00 in    
Wind  
Wind Speed 12 mph (NNW)    
Max Wind Speed 26 mph    
Max Gust Speed 37 mph    
Visibility 10 miles    
Events      
T = Trace of Precipitation, MM = Missing Value Source: NWS Daily Summary

Daily Weather History Graph

Daily Weather History Graph

Search for Another Location

Airport or City:

Trip Planner

Search our weather history database for the weather conditions in past years. The results will help you decide how hot, cold, wet, or windy it might be!

Date:

Astronomy

Mar. 10, 2014 Rise Set
Actual Time 7:11 AM PDT 6:56 PM PDT
Civil Twilight 6:45 AM PDT 7:22 PM PDT
Nautical Twilight 6:15 AM PDT 7:52 PM PDT
Astronomical Twilight 5:45 AM PDT 8:22 PM PDT
Moon 1:48 PM PDT (3/10) 3:21 AM PDT (3/10)
Length of Visible Light 12h 36m
Length of Day
11h 44m
Waxing Gibbous, 71% of the Moon is Illuminated
Mar 10
Waxing Gibbous
Mar 16
Full
Mar 23
Last Quarter
Mar 30
New
Apr 7
First Quarter

Hourly Weather History & Observations

Time (PDT) Temp. Windchill Dew Point Humidity Pressure Visibility Wind Dir Wind Speed Gust Speed Precip Events Conditions
12:56 AM 43.0 °F 41.3 °F 24.1 °F 47% 30.10 in 10.0 mi NNE 3.5 mph - N/A   Clear
1:56 AM 37.9 °F 32.7 °F 24.1 °F 57% 30.09 in 10.0 mi NNW 6.9 mph - N/A   Clear
2:56 AM 36.0 °F 30.3 °F 24.1 °F 62% 30.07 in 10.0 mi NW 6.9 mph - N/A   Clear
3:56 AM 34.0 °F 27.2 °F 21.9 °F 61% 30.05 in 10.0 mi NNW 8.1 mph - N/A   Clear
4:56 AM 34.0 °F 31.0 °F 21.9 °F 61% 30.02 in 10.0 mi NNW 3.5 mph - N/A   Clear
5:56 AM 34.0 °F 28.8 °F 21.0 °F 59% 30.02 in 10.0 mi NW 5.8 mph - N/A   Clear
6:56 AM 30.9 °F 25.2 °F 21.0 °F 67% 30.02 in 10.0 mi NW 5.8 mph - N/A   Partly Cloudy
7:56 AM 34.0 °F 26.6 °F 21.9 °F 61% 30.05 in 10.0 mi NNE 9.2 mph - N/A   Clear
8:56 AM 43.0 °F 40.3 °F 23.0 °F 45% 30.03 in 10.0 mi NNE 4.6 mph - N/A   Clear
9:56 AM 50.0 °F - 24.1 °F 36% 30.02 in 10.0 mi Variable 3.5 mph - N/A   Clear
10:56 AM 60.1 °F - 18.0 °F 20% 30.01 in 10.0 mi Calm Calm - N/A   Clear
11:56 AM 64.0 °F - 16.0 °F 16% 30.01 in 10.0 mi WNW 8.1 mph - N/A   Scattered Clouds
12:56 PM 69.1 °F - 18.0 °F 14% 29.96 in 10.0 mi Variable 5.8 mph - N/A   Partly Cloudy
1:56 PM 72.0 °F - 23.0 °F 16% 29.93 in 10.0 mi NE 12.7 mph 21.9 mph N/A   Clear
2:56 PM 73.9 °F - 15.1 °F 11% 29.91 in 10.0 mi North 9.2 mph - N/A   Clear
3:56 PM 73.9 °F - -4.0 °F 5% 29.90 in 10.0 mi NNW 24.2 mph 32.2 mph N/A   Clear
4:56 PM 72.0 °F - -4.0 °F 5% 29.90 in 10.0 mi NNW 21.9 mph 31.1 mph N/A   Clear
5:56 PM 70.0 °F - -0.9 °F 6% 29.92 in 10.0 mi NNW 18.4 mph 29.9 mph N/A   Clear
6:56 PM 64.0 °F - 1.9 °F 8% 29.96 in 10.0 mi North 16.1 mph - N/A   Clear
7:56 PM 57.9 °F - 15.1 °F 19% 29.97 in 10.0 mi North 23.0 mph 32.2 mph N/A   Clear
8:56 PM 54.0 °F - 19.0 °F 25% 30.02 in 10.0 mi NNW 12.7 mph 21.9 mph N/A   Clear
9:56 PM 52.0 °F - 21.0 °F 30% 30.05 in 10.0 mi NNW 23.0 mph 29.9 mph N/A   Clear
10:56 PM 50.0 °F - 21.9 °F 33% 30.05 in 10.0 mi North 21.9 mph 27.6 mph N/A   Clear
11:56 PM 48.0 °F - 21.9 °F 36% 30.07 in 10.0 mi North 16.1 mph 23.0 mph N/A   Clear